Flag for Canada Weather past 2 weeks in Saint-Georges, Quebec, Canada

Now
27 °F

Chilly.


Feels Like: 18 °F
Forecast: 13 / 30 °F
Wind: 9 mph from North

Location: Beauceville

Current Time: Mar 28, 2015 at 3:38:42 PM

Latest Report: Mar 28, 2015 at 3:00 PM


Visibility: N/A

Pressure: 29.90 "Hg

Humidity: 48%

Dew point: 10 °F

Location of Saint-GeorgesLocation

Historic Weather in Saint-Georges — Graph

°F

Saint-Georges temperature yesterday

Maximum temperature yesterday: 37 °F (at 2:00 PM)
Minimum temperature yesterday: 26 °F (at 11:00 PM)
Average temperature yesterday: 33 °F

Past Weeks' High & Low Weather Summary

 TemperatureHumidityPressure
High44 °F (Mar 25, 6:00 PM)100% (Mar 21, 8:00 PM)30.46 "Hg (Mar 21, 8:00 PM)
Low-2 °F (Mar 20, 7:00 AM)25% (Mar 20, 4:00 PM)29.33 "Hg (Mar 17, 2:00 PM)
Average20 °F66%29.96 "Hg
* Reported Mar 13 2:00 PM — Mar 28 2:00 PM, Saint-Georges, Weather by CustomWeather, © 2015

Note: Actual official high and low records may vary slightly from our data, if they occured in-between our weather recording intervals... More about our weather records

Advertising

Saint-Georges weather history for previous 24 hours

 ConditionsComfort  
Time TempWeatherWind HumidityBarometerVisibility
2:00 PM
Sat, Mar 28
28 °FChilly.9 mph47%29.90 "HgN/A
1:00 PM28 °FChilly.9 mph46%29.91 "HgN/A
12:00 PM27 °FChilly.7 mph47%29.93 "HgN/A
11:00 AM25 °FChilly.7 mph53%29.93 "HgN/A
10:00 AM23 °FCold.5 mph57%29.94 "HgN/A
9:00 AM19 °FCold.6 mph64%29.95 "HgN/A
8:00 AM18 °FCold.5 mph73%29.95 "HgN/A
7:00 AM17 °FCold.5 mph77%29.93 "HgN/A
6:00 AM17 °FCold.6 mph74%29.90 "HgN/A
4:00 AM19 °FCold.5 mph68%29.88 "HgN/A
3:00 AM22 °FCold.5 mph64%29.86 "HgN/A
2:00 AM21 °FCold.5 mph77%29.87 "HgN/A
1:00 AM22 °FCold.1 mph73%29.84 "HgN/A
12:00 AM25 °FCold.1 mph65%29.82 "HgN/A
11:00 PM
Fri, Mar 27
26 °FChilly.3 mph53%29.81 "HgN/A
10:00 PM27 °FChilly.3 mph52%29.81 "HgN/A
9:00 PM28 °FChilly.2 mph55%29.80 "HgN/A
8:00 PM29 °FChilly.3 mph56%29.79 "HgN/A
6:00 PM34 °FChilly.6 mph51%29.75 "HgN/A
5:00 PM36 °FChilly.8 mph46%29.72 "HgN/A
4:00 PM36 °FChilly.7 mph47%29.71 "HgN/A
3:00 PM37 °FChilly.8 mph49%29.70 "HgN/A
Weather by CustomWeather, © 2015

See weather overviewHow to use our weather pages